Regional Weather Roundup
Issued by NWS

Home | Current Version | Previous Version | Text Only | Print | Product List | Glossary On
Versions: 1 2 3 4 5 6 7 8 9 10 11 12 13 14 15 16 17 18 19 20 21 22 23 24 25 26 27 28 29 30 31 32 33 34 35 36 37 38 39 40 41 42 43 44 45 46 47 48 49 50
000
ASUS45 KREV 040910
RWRNV
NEVADA REGIONAL WEATHER ROUNDUP
NATIONAL WEATHER SERVICE RENO NV
200 AM PDT TUE AUG 04 2015

NOTE: "FAIR" INDICATES FEW OR NO CLOUDS BELOW 12,000 FEET WITH NO
SIGNIFICANT WEATHER AND/OR OBSTRUCTIONS TO VISIBILITY.

NVZ001-003-004-041000-
WESTERN NEVADA

CITY           SKY/WX    TMP DP  RH WIND       PRES   REMARKS
RENO           PTCLDY    69  42  37 NW3       30.09R
CARSON CITY    FAIR      66  34  30 N6        30.10R
MINDEN         FAIR      55  41  58 E3        30.09S
SLIDE MTN        N/A     52  27  37 W16         N/A
PYRAMID LAKE     N/A     72 N/A N/A W6          N/A
FALLON         PTCLDY    70  38  31 CALM      30.01S
LOVELOCK       CLEAR     77  41  27 N7        30.00R
HAWTHORNE      CLEAR     75  39  27 W8        30.03R
$$

NVZ002-CAZ072-073-041000-
NORTHERN AND CENTRAL SIERRA

CITY           SKY/WX    TMP DP  RH WIND       PRES   REMARKS
S. LAKE TAHOE  PTCLDY    52  42  69 CALM      30.19S
TRUCKEE        PTCLDY    43  41  93 CALM      30.20S
SQUAW VLY 8000   N/A     54  34  47 SW8         N/A
SUSANVILLE     CLEAR     61  41  48 NW7       30.08S
BLUE CANYON    PTCLDY    64  46  52 NE3       30.15S
MAMMOTH LAKES  FAIR      48  36  61 NW3       30.24S
BRIDGEPORT     FAIR      52  31  44 CALM      30.20S
$$

NVZ030-031-036-041000-
NORTHERN NEVADA

CITY           SKY/WX    TMP DP  RH WIND       PRES   REMARKS
ELKO           CLEAR     62  44  51 NE5       30.07R
WINNEMUCCA     CLEAR     63  35  35 W10       30.02R
WENDOVER       PTCLDY    66  50  55 W5        30.08R
$$

NVZ035-037-041000-
CENTRAL NEVADA

CITY           SKY/WX    TMP DP  RH WIND       PRES   REMARKS
ELY            CLEAR     52  39  61 S12       30.18S
EUREKA           N/A     59  37  44 S12       30.12S
$$

NVZ013-014-041000-
SOUTH CENTRAL NEVADA

CITY           SKY/WX    TMP DP  RH WIND       PRES   REMARKS
TONOPAH        PTCLDY    61  20  20 N9        30.09R
$$

NVZ017-020-022-041000-
SOUTHERN NEVADA

CITY           SKY/WX    TMP DP  RH WIND       PRES   REMARKS
LAS VEGAS      PTCLDY    88  27  11 S6        29.80R
N. LAS VEGAS   PTCLDY    88  31  13 NW7       29.82S
NELLIS AFB     PTCLDY    85  33  15 N3        29.81R
HENDERSON      PTCLDY    83  35  18 S6        29.88R
MERCURY        PTCLDY    79  29  16 N6        29.91S
$$


USA.gov is the U.S. government's official web portal to all federal, state and local government web resources and services.